Vancouver, WA
on Tuesday, November 13, 2012

Tuesday
Previous Day Next Day
Daily Summary
 ActualAverageRecord
Temperature
Mean Temperature °F 47°F  
Max Temperature 54°F 54°F 70°F (1999)
Min Temperature 48°F 41°F 20°F (1955)
Degree Days
Heating Degree Days 14    
Month to date heating degree days 183  
Since 1 July heating degree days 502  
Cooling Degree Days 0    
Month to date cooling degree days 0  
Year to date cooling degree days 398  
Moisture
Dew Point 47°F   
Average Humidity 85    
Maximum Humidity 93    
Minimum Humidity 77    
Precipitation
Precipitation 0.01 in 0.19 in 1.26 in (1941)
Month to date precipitation 1.37 2.35  
Year to date precipitation 32.53 28.81  
Snow
Snow 0.00 in in in ()
Month to date snowfall 0.0  
Since 1 July snowfall 0.0  
Since 1 September snowfall 0.0  
Snow Depth 0.00 in   
Wind
Wind Speed 3 mph   
Max Wind Speed 9 mph   
Max Gust Speed 12 mph   
Visibility 10 miles   
Events Rain   

Key: T is trace of precipitation, MM is missing value
Source: NWS Daily Summary
Time(PST)TemperatureDew PointHumidity Pressure Visibility Wind DirectionWind SpeedGust SpeedPrecipitationEvents Conditions
12:10 AM 50.0°F 46.4°F 87% 30.25 in 10.0 miles East 3.5 mph - N/A   Overcast
12:53 AM 48.9°F 46.9°F 93% 30.25 in 10.0 miles Calm Calm - N/A   Mostly Cloudy
1:08 AM 48.2°F 46.4°F 93% 30.25 in 9.0 miles ESE 4.6 mph - N/A   Mostly Cloudy
1:53 AM 48.0°F 46.0°F 93% 30.25 in 10.0 miles SE 4.6 mph - N/A   Mostly Cloudy
2:45 AM 48.2°F 46.4°F 93% 30.24 in 10.0 miles Calm Calm - N/A   Mostly Cloudy
2:53 AM 48.0°F 46.0°F 93% 30.25 in 10.0 miles Calm Calm - N/A   Mostly Cloudy
3:13 AM 48.2°F 46.4°F 93% 30.24 in 10.0 miles Calm Calm - N/A   Mostly Cloudy
3:37 AM 48.2°F 46.4°F 93% 30.23 in 10.0 miles ESE 3.5 mph - N/A   Mostly Cloudy
3:45 AM 48.2°F 46.4°F 93% 30.23 in 10.0 miles ESE 5.8 mph - N/A   Mostly Cloudy
3:50 AM 48.2°F 46.4°F 93% 30.23 in 10.0 miles ESE 5.8 mph - N/A   Mostly Cloudy
4:53 AM 48.9°F 46.0°F 90% 30.23 in 10.0 miles East 4.6 mph - N/A   Overcast
5:53 AM 48.9°F 46.0°F 90% 30.23 in 10.0 miles ESE 5.8 mph - N/A   Overcast
6:53 AM 48.9°F 46.0°F 90% 30.22 in 10.0 miles ESE 4.6 mph - N/A   Scattered Clouds
7:17 AM 48.2°F 46.4°F 93% 30.22 in 10.0 miles ESE 6.9 mph - N/A   Mostly Cloudy
7:53 AM 48.9°F 45.0°F 86% 30.22 in 10.0 miles SE 5.8 mph - N/A   Mostly Cloudy
8:53 AM 48.9°F 46.0°F 90% 30.22 in 10.0 miles ESE 6.9 mph - N/A   Mostly Cloudy
9:31 AM 50.0°F 46.4°F 87% 30.22 in 10.0 miles Calm Calm - N/A   Overcast
9:53 AM 50.0°F 46.0°F 86% 30.22 in 10.0 miles ESE 3.5 mph - N/A   Overcast
10:53 AM 51.1°F 46.0°F 83% 30.21 in 10.0 miles ESE 8.1 mph - N/A   Overcast
11:53 AM 52.0°F 46.0°F 80% 30.19 in 10.0 miles East 5.8 mph - N/A   Overcast
12:53 PM 53.1°F 46.0°F 77% 30.18 in 10.0 miles Calm Calm - 0.00 in Rain Light Rain
1:53 PM 53.1°F 46.0°F 77% 30.17 in 10.0 miles Calm Calm - 0.01 in   Overcast
2:53 PM 53.1°F 46.0°F 77% 30.16 in 10.0 miles Calm Calm - N/A   Overcast
3:05 PM 53.6°F 46.4°F 77% 30.16 in 10.0 miles Calm Calm - N/A   Overcast
3:19 PM 53.6°F 46.4°F 77% 30.16 in 10.0 miles Calm Calm - N/A   Overcast
3:53 PM 53.1°F 46.9°F 80% 30.16 in 10.0 miles Calm Calm - N/A   Overcast
4:53 PM 52.0°F 46.9°F 83% 30.16 in 10.0 miles Calm Calm - N/A   Overcast
5:28 PM 51.8°F 46.4°F 82% 30.16 in 10.0 miles Calm Calm - N/A   Overcast
5:37 PM 51.8°F 46.4°F 82% 30.16 in 10.0 miles ESE 3.5 mph - N/A   Overcast
5:53 PM 52.0°F 46.0°F 80% 30.17 in 10.0 miles Calm Calm - N/A   Overcast
6:31 PM 51.8°F 46.4°F 82% 30.16 in 10.0 miles ESE 4.6 mph - N/A   Overcast
6:53 PM 51.1°F 46.0°F 83% 30.17 in 10.0 miles SE 3.5 mph - N/A   Overcast
7:02 PM 51.8°F 46.4°F 82% 30.17 in 10.0 miles ESE 4.6 mph - N/A   Overcast
7:48 PM 51.8°F 46.4°F 82% 30.17 in 10.0 miles ESE 5.8 mph - N/A   Overcast
7:53 PM 51.1°F 46.0°F 83% 30.17 in 10.0 miles ESE 3.5 mph - N/A   Overcast
8:04 PM 51.8°F 46.4°F 82% 30.17 in 10.0 miles ESE 5.8 mph - N/A   Overcast
8:25 PM 51.8°F 46.4°F 82% 30.18 in 10.0 miles ESE 4.6 mph - N/A   Overcast
8:53 PM 51.1°F 48.0°F 89% 30.18 in 10.0 miles East 4.6 mph - N/A   Overcast
9:00 PM 51.8°F 48.2°F 88% 30.18 in 10.0 miles ESE 4.6 mph - N/A   Overcast
9:26 PM 51.8°F 48.2°F 88% 30.19 in 10.0 miles ESE 5.8 mph - N/A   Overcast
9:53 PM 51.1°F 48.0°F 89% 30.19 in 10.0 miles ESE 4.6 mph - N/A   Overcast
10:46 PM 50.0°F 48.2°F 94% 30.19 in 10.0 miles East 4.6 mph - 0.00 in   Overcast
10:53 PM 50.0°F 48.0°F 93% 30.20 in 10.0 miles ESE 3.5 mph - 0.00 in   Overcast
11:41 PM 50.0°F 48.2°F 94% 30.21 in 10.0 miles SE 5.8 mph - N/A   Overcast
11:53 PM 51.1°F 48.0°F 89% 30.22 in 10.0 miles Calm Calm - N/A   Overcast
Moon Phase
Nov. 13 Nov. 13 Nov. 20 Nov. 28 Dec. 06
Sunrise:07:08 AM (PST) Moon Rise:06:53 AM (PST)11/13
Sunset:04:41 PM (PST) Moon Set:04:37 PM (PST)11/13

Copyright © 2014 The Weather Underground, Inc.